Regional Weather Roundup
Issued by NWS

Home | Current Version | Previous Version | Text Only | Print | Product List | Glossary On
Versions: 1 2 3 4 5 6 7 8 9 10 11 12 13 14 15 16 17 18 19 20 21 22 23 24 25 26 27 28 29 30 31 32 33 34 35 36 37 38 39 40 41 42 43 44 45 46 47 48 49 50
000
ASUS43 KDTX 262110
RWRMI
MICHIGAN HOURLY REGIONAL WEATHER ROUNDUP
NATIONAL WEATHER SERVICE DETROIT/PONTIAC MI
500 PM EDT THU MAY 26 2016

NOTE: "FAIR" INDICATES FEW OR NO CLOUDS BELOW 12,000 FEET WITH NO
SIGNIFICANT WEATHER AND/OR OBSTRUCTION TO VISIBILITY.

MIZ047>049-052>055-059>063-066>070-074>076-081>083-262200-
SOUTHEAST LOWER MICHIGAN

CITY           SKY/WX    TMP DP  RH WIND       PRES   REMARKS
ADRIAN         PTSUNNY   83  64  52 W10       29.93R
ALMA           MOSUNNY   78  65  63 S12G17    29.88S
ANN ARBOR      PTSUNNY   83  65  54 S9        29.90F
BAD AXE        PTSUNNY   79  68  68 NW3       29.87F
CARO           MOSUNNY   84  63  49 S9        29.87F
DETROIT CITY   CLOUDY    85  63  47 SW15      29.90F
DETROIT        CLOUDY    84  62  47 SW13      29.91S
FLINT          MOSUNNY   87  61  41 SW12      29.89F
GROSSE ILE     PTSUNNY   77  66  69 S9        29.90S
HILLSDALE      MOSUNNY   82  58  43 S8        29.93S
HOWELL         CLOUDY    83  62  47 SW10      29.91S

CITY           SKY/WX    TMP DP  RH WIND       PRES   REMARKS
JACKSON        MOSUNNY   82  63  52 S10       29.90S
LAMBERTVILLE   MOSUNNY   85  64  48 SW7       29.92R
LANSING        SUNNY     83  64  52 SW15G22   29.89F
LAPEER         FAIR      85  58  40 SW10      29.89F
MASON          PTSUNNY   83  64  51 SW8       29.90F
MONROE         MOSUNNY   85  65  51 SW7       29.89F
MT. CLEMENS    CLOUDY    81  67  61 S15       29.89S
PONTIAC        CLOUDY    82  61  48 S9        29.90F
PORT HOPE        N/A     63  60  90 E5        29.87F
PORT HURON     PTSUNNY   82  66  57 S17       29.90S
TRI CITIES     PTSUNNY   83  64  52 SW12      29.87F
MIDLAND        FAIR      83  65  54 SW14G20   29.85S
TROY           CLOUDY    85  59  41 S13G20    29.92S
SAGINAW HB     PTSUNNY   84  61  45 SW9       29.86S
$$
MIZ043>046-050>051-056>058-064>065-071>073-077>080-262200-
SOUTHWEST LOWER MICHIGAN

CITY           SKY/WX    TMP DP  RH WIND       PRES   REMARKS
BATTLE CREEK   SUNNY     82  63  52 SW12      29.90F
BENTON HARBOR  CLOUDY    78  65  63 W13       29.88R
BIG RAPIDS     CLOUDY    78  67  69 SW10      29.87F
COLDWATER      PTSUNNY   83  59  42 S10       29.91S
FREMONT        FAIR      78  68  70 SW12      29.87F
HOLLAND        PTSUNNY   76  67  73 W10       29.89S
GRAND RAPIDS   PTSUNNY   86  66  51 SW7       29.87F
IONIA          FAIR      83  63  51 SW7       29.87F
KALAMAZOO      MOSUNNY   84  61  45 SW10      29.89S
LUDINGTON      MOSUNNY   74  66  75 SW16G24   29.86F
MARSHALL       SUNNY     83  65  53 SW7       29.89F
MOUNT PLEASANT CLOUDY    82  65  56 SW13G18   29.85S
MUSKEGON       CLOUDY    77  65  66 SW12      29.88F
SOUTH HAVEN    PTSUNNY   75  65  70 W6        29.89S
$$
MIZ016>042-262200-
NORTHERN LOWER MICHIGAN

CITY           SKY/WX    TMP DP  RH WIND       PRES   REMARKS
ALPENA         PTSUNNY   80  62  54 E10       29.80F
BEAVER ISLAND  CLOUDY    66  62  85 SW12      29.82F
BELLAIRE       CLOUDY    77  63  61 W6        29.80S
CADILLAC       PTSUNNY   78  63  60 SW16G26   29.86S
CHARLEVOIX     CLOUDY    69  66  91 W12       29.85R
FRANKFORT      SUNNY     69  64  84 SW15G22   29.84S
GAYLORD        TSTM      73  64  73 NW6       29.84F
GRAYLING       CLOUDY    79  68  68 S10G16    29.85F
HARBOR SPRINGS HVY RAIN  59  58  97 NE7       29.84R VSB 3/4
HOUGHTON LAKE  CLOUDY    75  63  66 SW6       29.87S
MANISTEE       SUNNY     79  61  53 SW17G25   29.85S
OSCODA         SUNNY     86  64  47 S16G22    29.83F
PELLSTON       LGT RAIN  78  64  61 SW6       29.83R
ROGERS CITY    CLOUDY    69  58  68 NE5       29.80F
TRAVERSE CITY  PTSUNNY   85  60  42 SW13G24   29.78S
$$
MIZ007>008-015-262200-
EASTERN UPPER MICHIGAN

CITY           SKY/WX    TMP DP  RH WIND       PRES   REMARKS
KINROSS          N/A     73  64  73 S3        29.81F
MACKINAC ISLAN CLOUDY    67  60  78 E9G16     29.81F
NEWBERRY       CLOUDY    67  63  86 S7        29.80F
S. S. MARIE    LGT RAIN  73  64  73 CALM      29.80F
MUNISING         N/A     52  52 100 E6        29.83R
$$
MIZ004>006-011>014-085-262200-
CENTRAL UPPER MICHIGAN

CITY           SKY/WX    TMP DP  RH WIND       PRES   REMARKS
MANISTIQUE     CLOUDY    53  52  97 S6        29.81S FOG
ESCANABA       CLOUDY    61  57  88 NW6G17    29.83R
MENOMINEE      PTSUNNY   73  66  78 N9        29.82R
SAWYER-GWINN   RAIN      61  59  94 E7        29.85R
$$
MIZ001>003-009>011-084-262200-
WESTERN UPPER MICHIGAN

CITY           SKY/WX    TMP DP  RH WIND       PRES   REMARKS
IRON MOUNTAIN  PTSUNNY   69  59  70 NW9       29.83R
HOUGHTON       LGT RAIN  61  59  93 S9        29.79F
COPPER HARBOR    N/A     47  46  97 CALM      29.79F
IRONWOOD       PTSUNNY   72  64  78 SW5       29.77F
$$

ABBREVIATIONS USED IN REMARKS
   TC - TEMPERATURE IN CELSIUS
  WCI - WIND CHILL INDEX
   HX - HEAT INDEX
  VSB - VISIBILITY




USA.gov is the U.S. government's official web portal to all federal, state and local government web resources and services.